• In Österreich
  • Länderverzeichnis
  • Für 7 Tage
  • Wassertemperatur
  • Satellitenkarten
  • Wetterkarte
  • News
  • Widgets
  • user-avatar
    Anmelden

    Stündliche Wetter Sydney

    Heute, 12 Dezember, Dienstag

    Zeit Temperatur Niederschläge Wind Luftdruck Luftfeuchtigkeit
    00:00 +20°C° 0 mm 1 m/S 763 mmHg 86%
    01:00 +20°C° 0 mm 1 m/S 763 mmHg 89%
    02:00 +20°C° 0 mm 1 m/S 763 mmHg 90%
    03:00 +20°C° 0 mm 1 m/S 763 mmHg 92%
    04:00 +20°C° 0 mm 1 m/S 762 mmHg 94%
    05:00 +21°C° 0 mm 1 m/S 762 mmHg 86%
    06:00 +23°C° 0 mm 1 m/S 763 mmHg 78%
    07:00 +25°C° 0 mm 1 m/S 763 mmHg 71%
    08:00 +27°C° 0 mm 2 m/S 763 mmHg 62%
    09:00 +29°C° 0 mm 2 m/S 763 mmHg 53%
    10:00 +31°C° 0 mm 3 m/S 762 mmHg 45%
    11:00 +31°C° 0 mm 3 m/S 762 mmHg 42%
    12:00 +33°C° 0 mm 4 m/S 762 mmHg 40%
    13:00 +34°C° 0 mm 5 m/S 761 mmHg 37%
    14:00 +33°C° 0 mm 5 m/S 761 mmHg 40%
    15:00 +33°C° 0 mm 6 m/S 760 mmHg 43%
    16:00 +32°C° 0 mm 7 m/S 760 mmHg 45%
    17:00 +29°C° 0 mm 6 m/S 760 mmHg 53%
    18:00 +27°C° 0 mm 6 m/S 760 mmHg 60%
    19:00 +24°C° 0 mm 6 m/S 760 mmHg 67%
    20:00 +23°C° 0 mm 5 m/S 760 mmHg 72%
    21:00 +22°C° 0 mm 5 m/S 761 mmHg 76%
    22:00 +21°C° 0 mm 4 m/S 761 mmHg 80%
    23:00 +21°C° 0 mm 4 m/S 760 mmHg 82%

    Morgen, 13 Dezember, Mittwoch

    Zeit Temperatur Niederschläge Wind Luftdruck Luftfeuchtigkeit
    00:00 +20°C° 0 mm 4 m/S 760 mmHg 85%
    01:00 +20°C° 0 mm 3 m/S 760 mmHg 87%
    02:00 +20°C° 0 mm 3 m/S 760 mmHg 89%
    03:00 +19°C° 0 mm 3 m/S 759 mmHg 90%
    04:00 +19°C° 0 mm 3 m/S 759 mmHg 92%
    05:00 +21°C° 0 mm 3 m/S 759 mmHg 83%
    06:00 +24°C° 0 mm 3 m/S 759 mmHg 74%
    07:00 +26°C° 0 mm 3 m/S 759 mmHg 65%
    08:00 +29°C° 0 mm 3 m/S 759 mmHg 55%
    09:00 +33°C° 0 mm 4 m/S 759 mmHg 44%
    10:00 +36°C° 0 mm 4 m/S 759 mmHg 34%
    11:00 +37°C° 0 mm 5 m/S 758 mmHg 30%
    12:00 +39°C° 0 mm 5 m/S 758 mmHg 27%
    13:00 +40°C° 0 mm 6 m/S 757 mmHg 23%
    14:00 +39°C° 0 mm 7 m/S 756 mmHg 25%
    15:00 +39°C° 0 mm 7 m/S 756 mmHg 27%
    16:00 +38°C° 0 mm 7 m/S 756 mmHg 29%
    17:00 +35°C° 0 mm 7 m/S 756 mmHg 33%
    18:00 +34°C° 0 mm 7 m/S 756 mmHg 37%
    19:00 +32°C° 0 mm 7 m/S 756 mmHg 41%
    20:00 +30°C° 0 mm 7 m/S 756 mmHg 44%
    21:00 +29°C° 0 mm 6 m/S 756 mmHg 46%
    22:00 +28°C° 0 mm 6 m/S 757 mmHg 49%
    23:00 +27°C° 0 mm 6 m/S 756 mmHg 51%

    übermorgen, 14 Dezember, Donnerstag

    Zeit Temperatur Niederschläge Wind Luftdruck Luftfeuchtigkeit
    00:00 +26°C° 0 mm 5 m/S 756 mmHg 53%
    01:00 +25°C° 0 mm 5 m/S 756 mmHg 55%
    02:00 +25°C° 0 mm 5 m/S 755 mmHg 56%
    03:00 +23°C° 0 mm 5 m/S 755 mmHg 56%
    04:00 +23°C° 0 mm 4 m/S 755 mmHg 57%
    05:00 +26°C° 0 mm 4 m/S 755 mmHg 51%
    06:00 +28°C° 0 mm 4 m/S 755 mmHg 44%
    07:00 +30°C° 0 mm 4 m/S 756 mmHg 37%
    08:00 +35°C° 0 mm 5 m/S 755 mmHg 31%
    09:00 +39°C° 0 mm 5 m/S 755 mmHg 24%
    10:00 +43°C° 0 mm 5 m/S 755 mmHg 17%
    11:00 +44°C° 0 mm 6 m/S 755 mmHg 16%
    12:00 +45°C° 0 mm 6 m/S 754 mmHg 15%
    13:00 +46°C° 0 mm 6 m/S 754 mmHg 13%
    14:00 +44°C° 0 mm 6 m/S 753 mmHg 17%
    15:00 +41°C° 0 mm 6 m/S 753 mmHg 20%
    16:00 +39°C° 0 mm 5 m/S 753 mmHg 24%
    17:00 +36°C° 0,1 mm 5 m/S 753 mmHg 31%
    18:00 +34°C° 0,1 mm 5 m/S 754 mmHg 37%
    19:00 +32°C° 0,1 mm 5 m/S 754 mmHg 44%
    20:00 +30°C° 0,4 mm 5 m/S 755 mmHg 52%
    21:00 +28°C° 0,4 mm 5 m/S 755 mmHg 59%
    22:00 +26°C° 0,4 mm 4 m/S 756 mmHg 67%
    23:00 +26°C° 0 mm 5 m/S 755 mmHg 69%

    15 Dezember, Freitag

    Zeit Temperatur Niederschläge Wind Luftdruck Luftfeuchtigkeit
    00:00 +26°C° 0 mm 5 m/S 755 mmHg 72%
    01:00 +25°C° 0 mm 5 m/S 755 mmHg 74%
    02:00 +23°C° 0 mm 5 m/S 755 mmHg 78%
    03:00 +23°C° 0 mm 5 m/S 756 mmHg 82%
    04:00 +22°C° 0 mm 4 m/S 756 mmHg 85%
    05:00 +22°C° 0 mm 5 m/S 756 mmHg 83%
    06:00 +23°C° 0 mm 5 m/S 757 mmHg 80%
    07:00 +25°C° 0 mm 5 m/S 758 mmHg 77%
    08:00 +27°C° 0 mm 5 m/S 758 mmHg 68%
    09:00 +29°C° 0 mm 4 m/S 758 mmHg 59%
    10:00 +32°C° 0 mm 4 m/S 757 mmHg 50%
    11:00 +33°C° 0 mm 4 m/S 757 mmHg 47%
    12:00 +35°C° 0 mm 4 m/S 756 mmHg 43%
    13:00 +36°C° 0 mm 4 m/S 756 mmHg 39%
    14:00 +35°C° 0,2 mm 4 m/S 756 mmHg 43%
    15:00 +34°C° 0,2 mm 4 m/S 755 mmHg 47%
    16:00 +31°C° 0,2 mm 3 m/S 755 mmHg 51%
    17:00 +29°C° 1,4 mm 3 m/S 756 mmHg 62%
    18:00 +27°C° 1,4 mm 3 m/S 756 mmHg 73%
    19:00 +25°C° 1,4 mm 2 m/S 757 mmHg 84%
    20:00 +25°C° 0,4 mm 3 m/S 757 mmHg 86%
    21:00 +25°C° 0,4 mm 3 m/S 757 mmHg 87%
    22:00 +25°C° 0,4 mm 4 m/S 757 mmHg 89%
    23:00 +23°C° 0 mm 4 m/S 757 mmHg 89%

    16 Dezember, Samstag

    Zeit Temperatur Niederschläge Wind Luftdruck Luftfeuchtigkeit
    00:00 +23°C° 0 mm 4 m/S 757 mmHg 89%
    01:00 +24°C° 0 mm 3 m/S 757 mmHg 89%
    02:00 +24°C° 0 mm 3 m/S 757 mmHg 89%
    03:00 +22°C° 0 mm 3 m/S 757 mmHg 90%
    04:00 +22°C° 0 mm 3 m/S 757 mmHg 91%
    05:00 +24°C° 0 mm 3 m/S 757 mmHg 85%
    06:00 +26°C° 0 mm 3 m/S 757 mmHg 79%
    07:00 +27°C° 0 mm 3 m/S 758 mmHg 72%
    08:00 +31°C° 0 mm 3 m/S 758 mmHg 58%
    09:00 +35°C° 0 mm 3 m/S 758 mmHg 44%
    10:00 +39°C° 0 mm 3 m/S 757 mmHg 30%
    11:00 +39°C° 0 mm 3 m/S 757 mmHg 30%
    12:00 +40°C° 0 mm 4 m/S 757 mmHg 30%
    13:00 +40°C° 0 mm 5 m/S 756 mmHg 30%
    14:00 +36°C° 0,1 mm 4 m/S 756 mmHg 44%
    15:00 +32°C° 0,1 mm 4 m/S 756 mmHg 58%
    16:00 +28°C° 0,1 mm 4 m/S 756 mmHg 72%
    17:00 +27°C° 0,5 mm 4 m/S 757 mmHg 77%
    18:00 +26°C° 0,5 mm 4 m/S 758 mmHg 81%
    19:00 +25°C° 0,5 mm 4 m/S 758 mmHg 86%
    20:00 +25°C° 0,6 mm 4 m/S 759 mmHg 88%
    21:00 +23°C° 0,6 mm 4 m/S 760 mmHg 89%
    22:00 +22°C° 0,6 mm 5 m/S 760 mmHg 91%
    23:00 +22°C° 0,8 mm 4 m/S 760 mmHg 91%

    17 Dezember, Sonntag

    Zeit Temperatur Niederschläge Wind Luftdruck Luftfeuchtigkeit
    00:00 +22°C° 0,8 mm 4 m/S 760 mmHg 92%
    01:00 +22°C° 0,8 mm 4 m/S 760 mmHg 93%
    02:00 +21°C° 0,6 mm 4 m/S 760 mmHg 93%
    03:00 +21°C° 0,6 mm 5 m/S 760 mmHg 93%
    04:00 +21°C° 0,6 mm 5 m/S 760 mmHg 93%
    05:00 +22°C° 0,2 mm 5 m/S 761 mmHg 91%
    06:00 +22°C° 0,2 mm 4 m/S 761 mmHg 89%
    07:00 +23°C° 0,2 mm 4 m/S 762 mmHg 87%
    08:00 +23°C° 0,1 mm 4 m/S 762 mmHg 84%
    09:00 +25°C° 0,1 mm 4 m/S 762 mmHg 81%
    10:00 +25°C° 0,1 mm 3 m/S 762 mmHg 78%
    11:00 +27°C° 0 mm 3 m/S 761 mmHg 70%
    12:00 +29°C° 0 mm 3 m/S 761 mmHg 62%
    13:00 +33°C° 0 mm 3 m/S 761 mmHg 54%
    14:00 +33°C° 0 mm 3 m/S 760 mmHg 55%
    15:00 +33°C° 0 mm 3 m/S 760 mmHg 55%
    16:00 +33°C° 0 mm 4 m/S 760 mmHg 55%
    17:00 +30°C° 0,2 mm 3 m/S 760 mmHg 64%
    18:00 +28°C° 0,2 mm 3 m/S 760 mmHg 74%
    19:00 +26°C° 0,2 mm 3 m/S 761 mmHg 83%
    20:00 +26°C° 0,1 mm 3 m/S 761 mmHg 84%
    21:00 +25°C° 0,1 mm 4 m/S 761 mmHg 85%
    22:00 +25°C° 0,1 mm 4 m/S 762 mmHg 87%
    23:00 +23°C° 0 mm 4 m/S 761 mmHg 87%
    Mehr zeigen